Location: Pian di Sc�
(43.6333°N, 11.5500°E)
Time: 14:30:12
(UTC+00:00)

Cosmos 1953 - Pass Details

Date: 07 August 2020
Orbit: 538 x 558 km, 82.5° (Epoch: 24 September)

Event Time Altitude Azimuth Distance (km) Brightness Sun altitude
Exits shadow 02:00:02 15° 148° (SSE) 1,547 4.4 -19.7°
Maximum altitude 02:02:49 32° 91° (E) 971 3.9 -19.4°
Drops below altitude 10° 02:06:25 10° 28° (NNE) 1,841 6.1 -18.9°
Sets 02:08:46 0° 18° (NNE) 2,744 7.1 -18.7°
